RADUGA 22 1 19596U 88095A 21016.10327406 .00000068 00000-0 00000-0 0 9997 2 19596 13.9235 345.3383 0004694 84.2516 97.6472 1.00304128101818 SL-12 R/B(2) 1 19777U 88095F 21016.62421260 -.00000180 00000-0 00000-0 0 9994 2 19777 14.8652 348.3524 0010399 214.4140 321.4244 0.97939967102929